[[[{"header":{"parameterUnit":"kt","parameterCategory":2,"dx":1,"dy":1,"la1":30.253999710083008,"la2":30.299108505249023,"lo1":-89.0895004272461,"lo2":-89.04439544677734,"nx":28,"ny":28,"refTime":"2022-10-02T21:00:00:Z","depth":0,"parameterNumber":1,"parameterNumberName":"U-component_of_WINDS"},"data":[-4.1871,-4.2026,-4.1989,-4.2149,-4.2144,-4.2247,-4.2273,-4.2302,-4.2317,-4.2437,-4.25,-4.2481,-4.2484,-4.2552,-4.2619,-4.261,-4.2642,-4.272,-4.2696,-4.2372,-4.2326,-4.2281,-4.2241,-4.2728,-4.2728,-4.3037,-4.304,-4.3042,-4.1632,-4.1627,-4.1702,-4.175,-4.1813,-4.1714,-4.1744,-4.1805,-4.1901,-4.1921,-4.1981,-4.2085,-4.2164,-4.2139,-4.2209,-4.2282,-4.2241,-4.2303,-4.2298,-4.2301,-4.1952,-4.1911,-4.2335,-4.2335,-4.2335,-4.2335,-4.2334,-4.2334,-4.1185,-4.128,-4.1287,-4.1368,-4.1382,-4.1415,-4.15,-4.1473,-4.1547,-4.1615,-4.1559,-4.1669,-4.1683,-4.1752,-4.1767,-4.1852,-4.1777,-4.1836,-4.1851,-4.1867,-4.189,-4.1448,-4.1863,-4.1861,-4.186,-4.1859,-4.1858,0,-4.0848,-4.0811,-4.088,-4.0939,-4.0996,-4.1039,-4.1073,-4.1124,-4.1037,-4.1103,-4.1194,-4.1242,-4.1335,-4.1419,-4.1478,-4.1482,-4.139,-4.1377,-4.1418,-4.1447,-4.1464,-4.1457,-4.0892,-4.1367,-4.1362,-4.1359,-4.1357,-4.1355,-4.0396,-4.0511,-4.0502,-4.0556,-4.0565,-4.0655,-4.0701,-4.0615,-4.0668,-4.0698,-4.0787,-4.0869,-4.0931,-4.1086,-4.1058,-4.113,-4.1087,-4.1272,-4.1098,-4.1119,-4.1091,-4.1086,-4.1096,-4.1309,-4.1315,-4.132,-4.1324,0,-4.0145,-4.0086,-4.0253,-4.0234,-4.0233,-4.0359,-4.0343,-4.0435,-4.0401,-4.0524,-4.0547,-4.0496,-4.0589,-4.053,-4.0627,-4.0594,-4.0801,-4.0757,-4.0794,-4.0782,-4.0943,-4.0929,-4.1472,-4.1538,-4.1032,-4.1037,-4.1041,0,-3.9737,-3.9893,-3.9795,-3.9896,-4.0065,-3.9975,-4.0145,-4.0133,-4.0144,-4.024,-4.0124,-4.0217,-4.0127,-4.0213,-4.0165,-4.0324,-4.0342,-4.0327,-4.0313,-4.0339,-4.0341,-4.037,-4.0347,-4.0275,-4.0273,-4.027,-4.0268,0,-3.9352,-3.9483,-3.9645,-3.9666,-3.9663,-3.9742,-3.9745,-3.9757,-3.9805,-3.9857,-3.9886,-3.9955,-3.9993,-4.0048,-3.9986,-3.987,-4.0179,-4.0007,-4.0164,-4.0166,-4.0239,-4.0236,-4.0727,-4.0265,-4.0264,-4.0263,-4.0262,0,-3.9015,-3.9066,-3.9311,-3.9305,-3.9344,-3.9452,-3.9511,-3.959,-3.9612,-3.9588,-3.9629,-3.9546,-3.968,-3.9513,-3.9697,-3.9563,-3.9607,-3.9605,-3.9615,-3.9627,-3.9443,-3.973,-4.0202,-4.025,-3.9632,-3.9627,-3.9622,0,-3.859,-3.8821,-3.8745,-3.8981,-3.9079,-3.8941,-3.9059,-3.9082,-3.906,-3.9141,-3.9116,-3.9212,-3.9075,-3.9097,-3.9195,-3.9176,-3.9349,-3.915,-3.9273,-3.9279,-3.9272,-3.9705,-3.9791,-4.0104,-3.9554,-3.9561,-3.9566,0,-3.8254,-3.8248,-3.8297,-3.8316,-3.8331,-3.8415,-3.8551,-3.8625,-3.8683,-3.8723,-3.8836,-3.8969,-3.8871,-3.891,-3.8852,-3.8958,-3.9229,-3.884,-3.8839,-3.8913,-3.9515,-3.9595,-3.9648,-3.9166,-3.9174,-3.9181,-3.9513,0,-3.7759,-3.7867,-3.7993,-3.8043,-3.8098,-3.8243,-3.8179,-3.8245,-3.818,-3.8154,-3.832,-3.8328,-3.8408,-3.8452,-3.8393,-3.8653,-3.8601,-3.8497,-3.8334,-3.8618,-3.8726,-3.877,-3.8178,-3.8172,-3.8168,-3.8164,0,0,-3.7368,-3.7523,-3.7437,-3.7565,-3.7607,-3.7462,-3.7623,-3.7647,-3.7701,-3.7733,-3.764,-3.7831,-3.7843,-3.8053,-3.8136,-3.8169,-3.821,-3.8115,-3.8483,-3.8519,-3.8552,-3.8668,-3.8715,-3.8157,-3.8155,-3.8154,-3.8152,0,-3.7174,-3.7184,-3.7343,-3.7362,-3.7389,-3.7352,-3.739,-3.7393,-3.7384,-3.7546,-3.7429,-3.7522,-3.7679,-3.7707,-3.7742,-3.8086,-3.7995,-3.8115,-3.8321,-3.8441,-3.8483,-3.8519,-3.8643,-3.8688,-3.8142,-3.8142,-3.8143,0,-3.6833,-3.6832,-3.6902,-3.6988,-3.7006,-3.7113,-3.6923,-3.7045,-3.7124,-3.6966,-3.7131,-3.7128,-3.7161,-3.7368,-3.7458,-3.7377,-3.7803,-3.7659,-3.7685,-3.7695,-3.7809,-3.7859,-3.7904,-3.7317,-3.7315,-3.7312,0,0,-3.6675,-3.6776,-3.6751,-3.6942,-3.6961,-3.691,-3.6961,-3.6903,-3.6934,-3.6947,-3.6942,-3.6978,-3.7067,-3.7129,-3.7211,-3.7446,-3.7447,-3.756,-3.7598,-3.763,-3.7658,-3.7781,-3.783,-3.7302,-3.7302,-3.7302,0,0,-3.6601,-3.6578,-3.6507,-3.6721,-3.6752,-3.6743,-3.6864,-3.6778,-3.6845,-3.6822,-3.6734,-3.674,-3.6932,-3.6936,-3.6809,-3.7152,-3.6991,-3.7021,-3.7144,-3.7192,-3.723,-3.7227,-3.662,0,0,0,0,0,-3.6371,-3.6579,-3.6516,-3.6542,-3.6654,-3.6778,-3.6792,-3.6721,-3.6607,-3.6704,-3.6686,-3.6585,-3.6848,-3.6733,-3.6763,-3.6907,-3.7174,-3.7197,-3.7218,-3.7431,-3.7483,-3.7526,0,0,0,0,0,0,-3.6381,-3.6414,-3.651,-3.6511,-3.6535,-3.6769,-3.6561,-3.6547,-3.6595,-3.6573,-3.6591,-3.6585,-3.653,-3.6714,-3.6741,-3.688,-3.6611,-3.7183,-3.7202,-3.7219,-3.7449,-3.7491,-3.7527,0,0,0,0,0,-3.6388,-3.6414,-3.6611,-3.6507,-3.6528,-3.6484,-3.6553,-3.654,-3.6576,-3.655,-3.654,-3.6518,-3.6536,-3.6554,-3.673,-3.6869,-3.6591,-3.6602,-3.7195,-3.7211,-3.7224,-3.7469,0,0,0,0,0,0,-3.6394,-3.6405,-3.6614,-3.6618,-3.6423,-3.6469,-3.6474,-3.6534,-3.6548,-3.6541,-3.6472,-3.6454,-3.6543,-3.6556,-3.6571,-3.6869,-3.6575,-3.6586,-3.6593,-3.7207,-3.7219,-3.7229,0,0,0,0,0,0,-3.639,-3.6409,-3.6616,-3.6514,-3.6505,-3.6457,-3.6461,-3.6601,-3.655,-3.6469,-3.6454,-3.6464,-3.6521,-3.6558,-3.6569,-3.679,-3.6563,-3.6573,-3.6581,-3.6585,-3.7217,-3.7226,0,0,0,0,0,0,-3.6397,-3.6413,-3.6512,-3.6506,-3.6498,-3.6536,-3.6579,-3.6699,-3.6459,-3.6471,-3.6436,-3.6425,-3.6527,-3.6536,-3.6568,-3.6786,-3.6789,-3.6564,-3.6571,-3.6575,-3.6579,0,0,0,0,0,0,0,-3.6402,-3.6309,-3.659,-3.6499,-3.6492,-3.6653,-3.6655,-3.6656,-3.6457,-3.6447,-3.6438,-3.643,-3.6505,-3.6516,-3.6527,-3.6783,0,0,-3.6562,-3.6567,0,0,0,0,0,0,0,0,-3.6301,-3.6307,-3.6591,-3.6591,-3.6592,-3.6654,-3.6655,-3.6655,-3.6455,-3.6448,-3.644,-3.6433,-3.6508,-3.6517,-3.6526,0,0,0,0,0,0,0,0,0,0,0,0,0,0,0,-3.6591,-3.6591,0,-3.6654,-3.6654,-3.6655,-3.6454,-3.6448,-3.6442,-3.6436,-3.651,-3.6518,-3.6525,0,0,0,0,0,0,0,0,0,0,0,0,0,0,0,0,0,0,0,0,0,0,0,0,0,0,0,0,0,0,0,0,0,0,0,0,0,0,0,0,0,0,0,0,0,0,0,0,0,0,0,0,0,0,0,0,0,0,0,0,0,0,0,0,0,0,0,0,0]}],[{"header":{"parameterUnit":"kt","parameterCategory":2,"dx":1,"dy":1,"la1":30.253999710083008,"la2":30.299108505249023,"lo1":-89.0895004272461,"lo2":-89.04439544677734,"nx":28,"ny":28,"refTime":"2022-10-02T21:00:00:Z","depth":0,"parameterNumber":2,"parameterNumberName":"V-component_of_WINDS"},"data":[-7.4339,-7.4474,-7.4492,-7.4652,-7.4695,-7.4806,-7.4851,-7.491,-7.4962,-7.5094,-7.5173,-7.5202,-7.5258,-7.5353,-7.5437,-7.5448,-7.5481,-7.5516,-7.5522,-7.5356,-7.5334,-7.5313,-7.5283,-7.5523,-7.5523,-7.569,-7.5692,-7.5693,-7.421,-7.4255,-7.4346,-7.4446,-7.4523,-7.45,-7.4577,-7.4642,-7.4742,-7.4806,-7.4885,-7.5003,-7.5097,-7.5142,-7.5234,-7.5294,-7.5288,-7.5318,-7.5313,-7.5321,-7.5145,-7.5113,-7.5321,-7.5321,-7.5321,-7.5321,-7.5321,-7.5321,-7.3981,-7.4062,-7.4134,-7.4233,-7.4288,-7.4354,-7.4433,-7.4469,-7.4557,-7.4659,-7.4661,-7.4774,-7.484,-7.496,-7.5004,-7.509,-7.5059,-7.5097,-7.5106,-7.5115,-7.5122,-7.4874,-7.5107,-7.5106,-7.5106,-7.5105,-7.5105,0,-7.3818,-7.3828,-7.3918,-7.4012,-7.4086,-7.4161,-7.4232,-7.4281,-7.4305,-7.4377,-7.4481,-7.4544,-7.4666,-7.4764,-7.4854,-7.4893,-7.4874,-7.4875,-7.4901,-7.49,-7.4887,-7.4893,-7.4603,-7.4868,-7.4866,-7.4865,-7.4864,-7.4863,-7.3586,-7.368,-7.3765,-7.3825,-7.3869,-7.3966,-7.4027,-7.4043,-7.4106,-7.4194,-7.4264,-7.4363,-7.4444,-7.4606,-7.4645,-7.4736,-7.4727,-7.4826,-7.4741,-7.4736,-7.4726,-7.472,-7.4728,-7.4842,-7.4845,-7.4847,-7.4849,0,-7.3453,-7.3484,-7.3635,-7.3709,-7.3731,-7.3827,-7.3889,-7.397,-7.3996,-7.411,-7.4138,-7.4178,-7.428,-7.4303,-7.4424,-7.4432,-7.4584,-7.4575,-7.456,-7.4559,-7.4648,-7.4639,-7.4939,-7.4978,-7.4731,-7.4734,-7.4736,0,-7.3266,-7.3389,-7.3426,-7.3513,-7.3648,-7.3662,-7.3794,-7.3831,-7.3891,-7.3981,-7.3966,-7.405,-7.4068,-7.4155,-7.4168,-7.4297,-7.432,-7.4334,-7.4335,-7.4335,-7.4333,-7.4366,-7.4354,-7.4339,-7.4337,-7.4336,-7.4335,0,-7.3054,-7.3219,-7.336,-7.3402,-7.3495,-7.3559,-7.36,-7.3669,-7.3728,-7.3809,-7.3848,-7.3941,-7.3992,-7.4062,-7.4079,-7.402,-7.4238,-7.416,-7.4251,-7.4251,-7.4298,-7.4295,-7.4556,-7.4333,-7.4332,-7.4332,-7.4331,0,-7.2907,-7.2993,-7.3194,-7.3269,-7.3312,-7.3405,-7.3498,-7.3584,-7.3656,-7.3672,-7.3735,-7.3728,-7.3846,-7.3766,-7.3926,-7.3844,-7.3894,-7.3918,-7.3925,-7.3936,-7.3846,-7.3988,-7.4236,-7.4261,-7.3946,-7.3943,-7.394,0,-7.2654,-7.2866,-7.288,-7.307,-7.3171,-7.3148,-7.325,-7.3317,-7.3346,-7.3433,-7.3464,-7.3564,-7.351,-7.3545,-7.3621,-7.3657,-7.3763,-7.3643,-7.3764,-7.3768,-7.3743,-7.3973,-7.4003,-7.4179,-7.3899,-7.3903,-7.3907,0,-7.2462,-7.2577,-7.2611,-7.2659,-7.2752,-7.2837,-7.2955,-7.3059,-7.3116,-7.3193,-7.3291,-7.3433,-7.3397,-7.3455,-7.3459,-7.3538,-7.3691,-7.3489,-7.3491,-7.3522,-7.3882,-7.3909,-7.3939,-7.3676,-7.3681,-7.3685,-7.3874,0,-7.223,-7.2341,-7.2433,-7.2544,-7.2614,-7.2736,-7.2765,-7.2834,-7.2831,-7.286,-7.3005,-7.3067,-7.3171,-7.3213,-7.3212,-7.3385,-7.3359,-7.3321,-7.3244,-7.3395,-7.3458,-7.3484,-7.3148,-7.3146,-7.3144,-7.3143,0,0,-7.1978,-7.214,-7.2154,-7.2271,-7.2331,-7.2307,-7.2434,-7.2489,-7.2602,-7.2642,-7.26,-7.281,-7.2862,-7.3035,-7.3084,-7.3128,-7.316,-7.3107,-7.3324,-7.3344,-7.3362,-7.3429,-7.3456,-7.314,-7.3139,-7.3138,-7.3138,0,-7.19,-7.1959,-7.2087,-7.2145,-7.2232,-7.2258,-7.2288,-7.237,-7.2394,-7.2539,-7.2515,-7.2606,-7.2775,-7.2832,-7.2884,-7.3087,-7.3063,-7.3117,-7.3216,-7.3305,-7.3327,-7.3347,-7.3417,-7.3443,-7.3133,-7.3134,-7.3134,0,-7.1714,-7.1777,-7.1842,-7.1981,-7.2038,-7.2143,-7.2071,-7.2186,-7.2264,-7.223,-7.2374,-7.2413,-7.2493,-7.2654,-7.2728,-7.2691,-7.2973,-7.2891,-7.2903,-7.2911,-7.2998,-7.3025,-7.3049,-7.2733,-7.2731,-7.273,0,0,-7.1642,-7.1748,-7.1819,-7.1966,-7.2004,-7.2044,-7.2104,-7.2109,-7.2184,-7.2214,-7.2263,-7.2335,-7.2432,-7.2496,-7.259,-7.2764,-7.278,-7.284,-7.2859,-7.2875,-7.2891,-7.2982,-7.3009,-7.2724,-7.2724,-7.2724,0,0,-7.1608,-7.1697,-7.1683,-7.1858,-7.1931,-7.201,-7.2097,-7.2081,-7.2169,-7.2158,-7.217,-7.219,-7.2342,-7.2381,-7.2301,-7.2563,-7.2487,-7.2506,-7.2532,-7.2556,-7.2575,-7.2562,-7.2234,0,0,0,0,0,-7.1544,-7.1686,-7.1672,-7.1706,-7.1882,-7.2018,-7.204,-7.2055,-7.2,-7.2068,-7.2106,-7.2078,-7.2339,-7.2269,-7.2301,-7.239,-7.2651,-7.2664,-7.2676,-7.275,-7.2775,-7.2796,0,0,0,0,0,0,-7.1557,-7.1599,-7.1669,-7.1754,-7.1793,-7.2013,-7.1923,-7.1931,-7.1993,-7.1985,-7.2072,-7.2081,-7.2095,-7.2254,-7.2282,-7.2366,-7.2225,-7.2656,-7.2667,-7.2677,-7.2759,-7.2779,-7.2797,0,0,0,0,0,-7.1568,-7.1601,-7.188,-7.1752,-7.1786,-7.1839,-7.1918,-7.1924,-7.1972,-7.2032,-7.2041,-7.1977,-7.2097,-7.2122,-7.2271,-7.2353,-7.2205,-7.2215,-7.2663,-7.2672,-7.268,-7.2769,0,0,0,0,0,0,-7.1576,-7.1607,-7.1887,-7.1898,-7.17,-7.1827,-7.1848,-7.1918,-7.2015,-7.2025,-7.1937,-7.193,-7.21,-7.2119,-7.2138,-7.2347,-7.2188,-7.2199,-7.2206,-7.267,-7.2677,-7.2683,0,0,0,0,0,0,-7.1589,-7.1616,-7.1893,-7.1827,-7.183,-7.1816,-7.1835,-7.1963,-7.2016,-7.1914,-7.1911,-7.1933,-7.207,-7.2117,-7.2132,-7.2333,-7.2176,-7.2186,-7.2194,-7.2198,-7.2675,-7.2681,0,0,0,0,0,0,-7.1601,-7.1624,-7.1824,-7.1827,-7.1829,-7.1952,-7.193,-7.2108,-7.1962,-7.191,-7.1949,-7.1943,-7.2069,-7.2085,-7.2129,-7.2323,-7.233,-7.2176,-7.2184,-7.2189,-7.2192,0,0,0,0,0,0,0,-7.161,-7.145,-7.1823,-7.1827,-7.1829,-7.1999,-7.2002,-7.2004,-7.196,-7.1955,-7.195,-7.1945,-7.2117,-7.2128,-7.214,-7.2315,0,0,-7.2175,-7.218,0,0,0,0,0,0,0,0,-7.144,-7.1447,-7.1823,-7.1826,-7.1828,-7.1999,-7.2001,-7.2004,-7.1959,-7.1955,-7.1951,-7.1947,-7.212,-7.2129,-7.2138,0,0,0,0,0,0,0,0,0,0,0,0,0,0,0,-7.1824,-7.1826,0,-7.1999,-7.2001,-7.2003,-7.1959,-7.1955,-7.1952,-7.1949,-7.2122,-7.213,-7.2138,0,0,0,0,0,0,0,0,0,0,0,0,0,0,0,0,0,0,0,0,0,0,0,0,0,0,0,0,0,0,0,0,0,0,0,0,0,0,0,0,0,0,0,0,0,0,0,0,0,0,0,0,0,0,0,0,0,0,0,0,0,0,0,0,0,0,0,0,0]}]]]